Date String (YYYY-MM-DD hh:mm:ss) UTC,Instrument flags,Ambient pressure (hPa),Sample flow (lpm),Bypass flow (lpm),Sample temperature (°C),Ambient temperature (°C),ASC tube jacket temperature (°C),LED temperature (°C),Box temperature (°C),Sample RH (%),Span deviation,Mass concentration (μg/m³),Mass concentration (μg/m³),Mass concentration (μg/m³)
DateTimeUTC,F1_M11,P_M11,Q1_M11,Q2_M11,T1_M11,T2_M11,T3_M11,T4_M11,T5_M11,U1_M11,ZSPAN_M11,X2_M11,X0_M11,X1_M11
2022-01-06 14:00:00,,0826.0,4.99,0.00,21.9,21.1,00.0,30.9,23.4,04.1,0002.0,0005.33,0009.64,0004.57
2022-01-06 14:01:00,,0825.9,5.03,0.00,21.8,20.7,00.0,30.9,23.3,04.1,0002.0,0005.36,0009.69,0004.58
2022-01-06 14:02:00,,0825.9,5.00,0.00,21.7,20.5,00.0,30.9,23.2,04.2,0002.2,0005.31,0009.57,0004.57
2022-01-06 14:03:00,,0825.9,4.99,0.00,21.7,20.3,00.0,30.8,23.1,04.2,0002.0,0005.33,0009.61,0004.59
2022-01-06 14:04:00,,0825.9,4.99,0.00,21.6,20.8,00.0,30.8,23.1,04.2,0001.2,0005.33,0009.64,0004.58
2022-01-06 14:05:00,,0826.2,5.00,0.00,21.8,21.8,00.0,30.9,23.4,04.2,0001.3,0005.30,0010.12,0004.57
2022-01-06 14:06:00,,0825.8,5.01,0.00,21.9,22.6,00.0,30.9,23.7,04.1,0001.5,0005.23,0010.35,0004.56
2022-01-06 14:07:00,,0825.7,5.01,0.00,22.0,22.4,00.0,30.9,23.8,04.1,0001.5,0005.17,0010.14,0004.55
2022-01-06 14:08:00,,0825.5,5.00,0.00,21.9,21.8,00.0,30.9,23.6,04.1,0001.7,0005.18,0009.98,0004.56
2022-01-06 14:09:00,,0825.4,5.00,0.00,21.8,21.2,00.0,30.9,23.4,04.1,0001.6,0005.18,0009.98,0004.58
2022-01-06 14:10:00,,0825.4,5.00,0.00,21.7,20.7,00.0,30.8,23.1,04.2,0002.0,0005.18,0009.82,0004.60
2022-01-06 14:11:00,,0825.5,5.00,0.00,21.6,20.4,00.0,30.8,23.0,04.2,0001.9,0005.15,0009.66,0004.60
2022-01-06 14:12:00,,0825.6,4.99,0.00,21.5,20.3,00.0,30.7,22.9,04.2,0002.2,0005.15,0009.60,0004.60
2022-01-06 14:13:00,,0825.7,5.00,0.00,21.6,21.2,00.0,30.8,23.1,04.2,0002.2,0005.19,0009.70,0004.61
2022-01-06 14:14:00,,0825.6,5.00,0.00,21.7,22.1,00.0,30.8,23.4,04.2,0002.1,0005.20,0009.71,0004.62
2022-01-06 14:15:00,,0825.6,5.00,0.00,21.8,22.9,00.0,30.8,23.7,04.1,0002.0,0005.19,0009.69,0004.63
2022-01-06 14:16:00,,0825.6,5.01,0.00,21.9,22.7,00.0,30.8,23.8,04.1,0001.6,0005.24,0009.15,0004.64
2022-01-06 14:17:00,,0825.6,4.99,0.00,21.9,22.0,00.0,30.8,23.6,04.1,0001.8,0005.30,0008.97,0004.65
2022-01-06 14:18:00,,0825.5,4.99,0.00,21.9,21.5,00.0,30.8,23.4,04.1,0002.1,0005.33,0009.05,0004.65
2022-01-06 14:19:00,,0825.5,5.00,0.00,21.8,21.1,00.0,30.8,23.3,04.1,0002.0,0005.33,0009.05,0004.65
2022-01-06 14:20:00,,0825.5,5.00,0.00,21.7,20.7,00.0,30.7,23.1,04.2,0002.0,0005.35,0009.25,0004.65
2022-01-06 14:21:00,,0825.6,4.99,0.00,21.6,20.3,00.0,30.7,23.0,04.2,0001.7,0005.34,0009.36,0004.64
2022-01-06 14:22:00,,0825.7,5.02,0.00,21.5,20.6,00.0,30.7,23.0,04.2,0002.0,0005.37,0009.36,0004.66
2022-01-06 14:23:00,,0825.7,4.99,0.00,21.6,21.6,00.0,30.7,23.3,04.2,0001.6,0005.39,0009.42,0004.67
2022-01-06 14:24:00,,0826.0,5.01,0.00,21.8,22.5,00.0,30.8,23.6,04.1,0001.3,0005.36,0009.35,0004.67
2022-01-06 14:25:00,,0825.8,4.99,0.00,21.9,22.5,00.0,30.8,23.7,04.1,0001.2,0005.33,0009.27,0004.66
2022-01-06 14:26:00,,0825.6,5.01,0.00,21.9,22.1,00.0,30.8,23.7,04.1,0001.4,0005.33,0009.43,0004.67
2022-01-06 14:27:00,,0825.6,5.00,0.00,21.9,21.6,00.0,30.8,23.5,04.1,0001.9,0005.33,0009.57,0004.68
2022-01-06 14:28:00,,0825.7,4.99,0.00,21.8,21.2,00.0,30.8,23.4,04.1,0002.2,0005.33,0009.55,0004.70
2022-01-06 14:29:00,,0825.9,5.01,0.00,21.8,20.9,00.0,30.8,23.3,04.2,0001.6,0005.35,0009.55,0004.73
2022-01-06 14:30:00,,0825.9,4.99,0.00,21.7,20.7,00.0,30.7,23.2,04.2,0001.3,0005.37,0009.67,0004.74
2022-01-06 14:31:00,,0825.9,4.99,0.00,21.6,20.5,00.0,30.7,23.2,04.2,0001.3,0005.34,0009.55,0004.74
2022-01-06 14:32:00,,0825.9,5.01,0.00,21.7,21.2,00.0,30.7,23.3,04.2,0001.5,0005.34,0009.45,0004.75
2022-01-06 14:33:00,,0825.8,4.99,0.00,21.8,22.1,00.0,30.8,23.6,04.2,0001.3,0005.33,0009.46,0004.74
2022-01-06 14:34:00,,0825.9,5.01,0.00,22.0,23.0,00.0,30.8,23.9,04.1,0001.7,0005.32,0009.47,0004.74
2022-01-06 14:35:00,,0825.9,4.99,0.00,22.1,23.0,00.0,30.9,24.0,04.1,0001.8,0005.33,0009.46,0004.74
2022-01-06 14:36:00,,0825.9,5.00,0.00,22.1,22.6,00.0,30.9,24.0,04.1,0002.3,0005.33,0009.41,0004.75
2022-01-06 14:37:00,,0825.9,5.00,0.00,22.1,22.1,00.0,30.9,23.9,04.1,0002.5,0005.33,0009.21,0004.74
2022-01-06 14:38:00,,0825.9,5.00,0.00,22.0,21.7,00.0,30.9,23.7,04.1,0002.5,0005.32,0009.36,0004.73
2022-01-06 14:39:00,,0825.8,4.99,0.00,22.0,21.4,00.0,30.9,23.6,04.1,0002.2,0005.29,0009.39,0004.72
2022-01-06 14:40:00,,0825.9,5.01,0.00,21.9,21.2,00.0,30.9,23.5,04.2,0002.2,0005.27,0009.35,0004.71
2022-01-06 14:41:00,,0825.8,4.99,0.00,21.9,20.9,00.0,30.9,23.4,04.2,0002.7,0005.30,0009.36,0004.73
2022-01-06 14:42:00,,0825.7,5.01,0.00,21.8,20.7,00.0,30.8,23.4,04.2,0002.6,0005.33,0009.37,0004.75
2022-01-06 14:43:00,,0825.7,4.99,0.00,21.8,21.2,00.0,30.9,23.4,04.2,0002.6,0005.35,0009.40,0004.77
2022-01-06 14:44:00,,0825.6,5.00,0.00,22.0,22.1,00.0,30.9,23.7,04.2,0002.7,0005.39,0009.57,0004.80
2022-01-06 14:45:00,,0825.6,5.01,0.00,22.1,22.9,00.0,30.9,24.0,04.2,0002.6,0005.40,0009.56,0004.81
2022-01-06 14:46:00,,0825.5,4.99,0.00,22.2,22.7,00.0,31.0,24.0,04.2,0002.7,0005.44,0009.65,0004.86
2022-01-06 14:47:00,,0825.5,5.01,0.00,22.2,22.3,00.0,31.0,23.9,04.2,0002.7,0005.50,0009.77,0004.89
2022-01-06 14:48:00,,0825.6,4.99,0.00,22.1,21.8,00.0,31.0,23.8,04.2,0002.7,0005.55,0009.85,0004.93
2022-01-06 14:49:00,,0825.6,4.99,0.00,22.1,21.5,00.0,31.0,23.7,04.2,0002.7,0005.60,0009.68,0004.97
2022-01-06 14:50:00,,0825.6,5.02,0.00,22.0,21.2,00.0,31.0,23.6,04.3,0002.9,0005.66,0009.65,0004.99
2022-01-06 14:51:00,,0825.5,4.98,0.00,21.9,20.9,00.0,30.9,23.5,04.3,0003.1,0005.66,0009.62,0005.01
2022-01-06 14:52:00,,0825.5,5.00,0.00,21.9,20.7,00.0,30.9,23.4,04.3,0003.0,0005.65,0009.57,0005.02
2022-01-06 14:53:00,,0825.6,4.98,0.00,21.8,20.9,00.0,30.9,23.4,04.3,0003.1,0005.64,0009.53,0005.04
2022-01-06 14:54:00,,0825.6,4.99,0.00,21.9,21.9,00.0,31.0,23.6,04.3,0003.2,0005.63,0009.47,0005.04
2022-01-06 14:55:00,,0825.6,5.00,0.00,22.1,22.7,00.0,31.0,23.9,04.3,0003.3,0005.59,0009.25,0005.03
2022-01-06 14:56:00,,0825.5,5.01,0.00,22.2,23.1,00.0,31.0,24.1,04.3,0003.3,0005.56,0009.22,0005.02
2022-01-06 14:57:00,,0825.4,4.99,0.00,22.2,22.7,00.0,31.1,24.0,04.3,0003.5,0005.54,0009.22,0004.99
2022-01-06 14:58:00,,0825.5,5.00,0.00,22.2,22.2,00.0,31.0,23.9,04.3,0003.6,0005.54,0009.24,0004.97
2022-01-06 14:59:00,,0825.5,4.99,0.00,22.1,21.8,00.0,31.0,23.8,04.3,0003.2,0005.51,0009.20,0004.95
